• In Germany
  • List of Countries
  • For 7 days
  • Water Temperature
  • Satellite Maps
  • Weather Map
  • Weather Widgets
  • user-avatar
    Login

    Hourly Weather Barra

    Today, 27 March, Monday

    Time Temperature Precipitation Wind Pressure Humidity
    00:00 +27°C° 0 mm 3 mps 745 mmHg 66%
    01:00 +27°C° 0 mm 4 mps 745 mmHg 67%
    02:00 +27°C° 0 mm 4 mps 745 mmHg 68%
    03:00 +27°C° 0 mm 4 mps 745 mmHg 70%
    04:00 +27°C° 0 mm 5 mps 744 mmHg 71%
    05:00 +27°C° 0 mm 5 mps 744 mmHg 72%
    06:00 +27°C° 0 mm 5 mps 744 mmHg 73%
    07:00 +27°C° 0 mm 5 mps 745 mmHg 74%
    08:00 +29°C° 0 mm 5 mps 745 mmHg 69%
    09:00 +30°C° 0 mm 5 mps 745 mmHg 65%
    10:00 +33°C° 0 mm 4 mps 745 mmHg 60%
    11:00 +34°C° 0 mm 4 mps 745 mmHg 56%
    12:00 +35°C° 0 mm 4 mps 744 mmHg 52%
    13:00 +37°C° 0 mm 4 mps 743 mmHg 48%
    14:00 +36°C° 0 mm 4 mps 743 mmHg 51%
    15:00 +35°C° 0 mm 5 mps 743 mmHg 54%
    16:00 +35°C° 0 mm 5 mps 742 mmHg 57%
    17:00 +33°C° 0 mm 5 mps 742 mmHg 62%
    18:00 +32°C° 0 mm 4 mps 743 mmHg 67%
    19:00 +29°C° 0 mm 4 mps 743 mmHg 72%
    20:00 +29°C° 0 mm 4 mps 743 mmHg 70%
    21:00 +29°C° 0 mm 4 mps 743 mmHg 69%
    22:00 +29°C° 0 mm 4 mps 744 mmHg 68%
    23:00 +29°C° 0 mm 4 mps 743 mmHg 67%

    Tomorrow, 28 March, Tuesday

    Time Temperature Precipitation Wind Pressure Humidity
    00:00 +29°C° 0 mm 5 mps 743 mmHg 66%
    01:00 +29°C° 0 mm 5 mps 743 mmHg 65%
    02:00 +29°C° 0 mm 5 mps 743 mmHg 65%
    03:00 +29°C° 0 mm 5 mps 742 mmHg 65%
    04:00 +29°C° 0 mm 5 mps 742 mmHg 65%
    05:00 +29°C° 0 mm 5 mps 742 mmHg 67%
    06:00 +28°C° 0 mm 5 mps 743 mmHg 69%
    07:00 +28°C° 0 mm 4 mps 743 mmHg 71%
    08:00 +29°C° 0 mm 4 mps 743 mmHg 68%
    09:00 +30°C° 0 mm 4 mps 743 mmHg 65%
    10:00 +33°C° 0 mm 4 mps 743 mmHg 61%
    11:00 +34°C° 0 mm 3 mps 742 mmHg 58%
    12:00 +35°C° 0 mm 3 mps 742 mmHg 56%
    13:00 +36°C° 0 mm 2 mps 741 mmHg 53%
    14:00 +35°C° 0.2 mm 2 mps 741 mmHg 59%
    15:00 +34°C° 0.2 mm 2 mps 741 mmHg 66%
    16:00 +32°C° 0.2 mm 2 mps 740 mmHg 73%
    17:00 +31°C° 0.5 mm 2 mps 741 mmHg 77%
    18:00 +29°C° 0.5 mm 2 mps 741 mmHg 82%
    19:00 +28°C° 0.5 mm 3 mps 741 mmHg 86%
    20:00 +28°C° 0.7 mm 3 mps 741 mmHg 85%
    21:00 +28°C° 0.7 mm 3 mps 742 mmHg 84%
    22:00 +28°C° 0.7 mm 3 mps 742 mmHg 83%
    23:00 +27°C° 0.3 mm 3 mps 742 mmHg 82%

    Day after tomorrow, 29 March, Wednesday

    Time Temperature Precipitation Wind Pressure Humidity
    00:00 +27°C° 0.3 mm 3 mps 742 mmHg 80%
    01:00 +27°C° 0.3 mm 3 mps 741 mmHg 79%
    02:00 +27°C° 0 mm 3 mps 741 mmHg 78%
    03:00 +27°C° 0 mm 3 mps 741 mmHg 77%
    04:00 +27°C° 0 mm 3 mps 741 mmHg 75%
    05:00 +27°C° 0 mm 3 mps 741 mmHg 76%
    06:00 +27°C° 0 mm 3 mps 742 mmHg 76%
    07:00 +27°C° 0 mm 3 mps 742 mmHg 77%
    08:00 +29°C° 0 mm 3 mps 743 mmHg 70%
    09:00 +31°C° 0 mm 3 mps 743 mmHg 63%
    10:00 +34°C° 0 mm 3 mps 743 mmHg 57%
    11:00 +35°C° 0 mm 3 mps 743 mmHg 52%
    12:00 +37°C° 0 mm 4 mps 743 mmHg 47%
    13:00 +38°C° 0 mm 4 mps 742 mmHg 42%
    14:00 +37°C° 0.1 mm 5 mps 742 mmHg 47%
    15:00 +37°C° 0.1 mm 5 mps 741 mmHg 52%
    16:00 +36°C° 0.1 mm 5 mps 741 mmHg 58%
    17:00 +34°C° 0.5 mm 5 mps 741 mmHg 64%
    18:00 +32°C° 0.5 mm 5 mps 742 mmHg 71%
    19:00 +30°C° 0.5 mm 5 mps 742 mmHg 78%
    20:00 +29°C° 0.9 mm 5 mps 743 mmHg 78%
    21:00 +29°C° 0.9 mm 5 mps 744 mmHg 78%
    22:00 +28°C° 0.9 mm 5 mps 744 mmHg 78%
    23:00 +28°C° 0.1 mm 5 mps 744 mmHg 79%

    30 March, Thursday

    Time Temperature Precipitation Wind Pressure Humidity
    00:00 +27°C° 0.1 mm 5 mps 744 mmHg 80%
    01:00 +27°C° 0.1 mm 4 mps 744 mmHg 81%
    02:00 +27°C° 0.1 mm 4 mps 744 mmHg 83%
    03:00 +27°C° 0.1 mm 4 mps 744 mmHg 86%
    04:00 +26°C° 0.1 mm 3 mps 743 mmHg 88%
    05:00 +27°C° 0 mm 3 mps 744 mmHg 88%
    06:00 +27°C° 0 mm 3 mps 745 mmHg 88%
    07:00 +27°C° 0 mm 3 mps 745 mmHg 88%
    08:00 +30°C° 0 mm 3 mps 746 mmHg 77%
    09:00 +33°C° 0 mm 3 mps 746 mmHg 66%
    10:00 +35°C° 0 mm 3 mps 746 mmHg 54%
    11:00 +37°C° 0 mm 3 mps 745 mmHg 49%
    12:00 +38°C° 0 mm 4 mps 745 mmHg 43%
    13:00 +40°C° 0 mm 4 mps 744 mmHg 37%
    14:00 +40°C° 0 mm 4 mps 744 mmHg 40%
    15:00 +38°C° 0 mm 4 mps 743 mmHg 43%
    16:00 +39°C° 0 mm 5 mps 743 mmHg 46%
    17:00 +35°C° 0.1 mm 4 mps 743 mmHg 58%
    18:00 +32°C° 0.1 mm 4 mps 744 mmHg 71%
    19:00 +28°C° 0.1 mm 4 mps 744 mmHg 83%
    20:00 +28°C° 0.1 mm 3 mps 745 mmHg 84%
    21:00 +27°C° 0.1 mm 3 mps 745 mmHg 86%
    22:00 +27°C° 0.1 mm 3 mps 746 mmHg 87%
    23:00 +26°C° 0.1 mm 3 mps 746 mmHg 87%

    31 March, Friday

    Time Temperature Precipitation Wind Pressure Humidity
    00:00 +26°C° 0.1 mm 3 mps 745 mmHg 87%
    01:00 +26°C° 0.1 mm 3 mps 745 mmHg 87%
    02:00 +26°C° 0.2 mm 3 mps 745 mmHg 84%
    03:00 +26°C° 0.2 mm 2 mps 745 mmHg 82%
    04:00 +26°C° 0.2 mm 2 mps 745 mmHg 79%
    05:00 +26°C° 0 mm 2 mps 745 mmHg 78%
    06:00 +26°C° 0 mm 2 mps 746 mmHg 76%
    07:00 +26°C° 0 mm 2 mps 746 mmHg 75%
    08:00 +29°C° 0 mm 2 mps 746 mmHg 67%
    09:00 +31°C° 0 mm 2 mps 747 mmHg 60%
    10:00 +34°C° 0 mm 1 mps 747 mmHg 53%
    11:00 +36°C° 0 mm 2 mps 746 mmHg 50%
    12:00 +36°C° 0 mm 2 mps 746 mmHg 48%
    13:00 +37°C° 0 mm 2 mps 745 mmHg 45%
    14:00 +36°C° 0 mm 2 mps 745 mmHg 49%
    15:00 +36°C° 0 mm 2 mps 745 mmHg 52%
    16:00 +35°C° 0 mm 3 mps 744 mmHg 56%
    17:00 +32°C° 0 mm 2 mps 745 mmHg 66%
    18:00 +29°C° 0 mm 2 mps 745 mmHg 76%
    19:00 +27°C° 0 mm 2 mps 745 mmHg 85%
    20:00 +27°C° 0 mm 2 mps 746 mmHg 86%
    21:00 +26°C° 0 mm 2 mps 746 mmHg 87%
    22:00 +26°C° 0 mm 1 mps 747 mmHg 87%
    23:00 +25°C° 0.1 mm 1 mps 746 mmHg 88%

    1 April, Saturday

    Time Temperature Precipitation Wind Pressure Humidity
    00:00 +25°C° 0.1 mm 1 mps 746 mmHg 89%
    01:00 +25°C° 0.1 mm 1 mps 746 mmHg 90%
    02:00 +25°C° 0 mm 1 mps 746 mmHg 88%
    03:00 +25°C° 0 mm 1 mps 746 mmHg 85%
    04:00 +25°C° 0 mm 2 mps 746 mmHg 83%
    05:00 +26°C° 0 mm 2 mps 746 mmHg 83%
    06:00 +26°C° 0 mm 2 mps 747 mmHg 83%
    07:00 +26°C° 0 mm 2 mps 747 mmHg 83%
    08:00 +28°C° 0 mm 2 mps 747 mmHg 75%
    09:00 +30°C° 0 mm 3 mps 748 mmHg 67%
    10:00 +33°C° 0 mm 3 mps 748 mmHg 60%
    11:00 +33°C° 0.1 mm 3 mps 747 mmHg 59%
    12:00 +34°C° 0.1 mm 3 mps 747 mmHg 58%
    13:00 +34°C° 0.1 mm 4 mps 746 mmHg 57%
    14:00 +34°C° 0.1 mm 4 mps 746 mmHg 60%
    15:00 +33°C° 0.1 mm 4 mps 746 mmHg 63%
    16:00 +33°C° 0.1 mm 3 mps 746 mmHg 66%
    17:00 +30°C° 0 mm 3 mps 746 mmHg 75%
    18:00 +28°C° 0 mm 3 mps 747 mmHg 83%
    19:00 +26°C° 0 mm 2 mps 747 mmHg 91%
    20:00 +26°C° 0.1 mm 2 mps 747 mmHg 93%
    21:00 +26°C° 0.1 mm 2 mps 748 mmHg 95%
    22:00 +25°C° 0.1 mm 2 mps 748 mmHg 97%
    23:00 +26°C° 0.3 mm 2 mps 748 mmHg 95%
    Show more